Regional Weather Roundup
Issued by NWS

Home | Current Version | Previous Version | Text Only | Print | Product List | Glossary On
Versions: 1 2 3 4 5 6 7 8 9 10 11 12 13 14 15 16 17 18 19 20 21 22 23 24 25 26 27 28 29 30 31 32 33 34 35 36 37 38 39 40 41 42 43 44 45 46 47 48 49 50
000
ASUS43 KFSD 310510
RWRSD

WEATHER ROUNDUP FOR SOUTH DAKOTA
NATIONAL WEATHER SERVICE SIOUX FALLS SD
1200 AM CDT SAT JUL 31 2021

NOTE: "FAIR" INDICATES FEW OR NO CLOUDS BELOW 12,000 FEET WITH NO
SIGNIFICANT WEATHER AND/OR OBSTRUCTIONS TO VISIBILITY.


SDZ001>005-009-010-012>017-310600-
NORTHWEST AND NORTH CENTRAL SOUTH DAKOTA

CITY           SKY/WX    TMP DP  RH WIND       PRES   REMARKS
BUFFALO          N/A     70  58  65 S7        30.18S
FAITH            N/A     63  62  97 S7        30.18F
MOBRIDGE       CLOUDY    70  60  70 S5        30.12S HAZE
$$

SDZ012>016-024>037-041>051-057-063-072>074-310600-
SOUTHWEST AND SOUTH CENTRAL SOUTH DAKOTA

CITY           SKY/WX    TMP DP  RH WIND       PRES   REMARKS
RAPID CTY ARPT MOCLDY    62  60  93 CALM      30.22F SMOKE
PIERRE         CLEAR     63  60  90 CALM      30.15R FOG
CUSTER         MOCLDY    63  56  78 N6        30.34S HAZE
PHILIP         MOCLDY    62  60  93 N3        30.18R FOG
PINE RIDGE     CLOUDY    69  61  75 N3        30.20S HAZE
SPEARFISH      FAIR      64  57  77 S7        30.27S
WINNER         CLOUDY    62  57  83 N3        30.15F HAZE
$$

SDZ004>011-016>023-039-040-310600-
NORTHEAST SOUTH DAKOTA

CITY           SKY/WX    TMP DP  RH WIND       PRES   REMARKS
ABERDEEN       CLEAR     63  60  90 S6        30.12S FOG
WATERTOWN      CLEAR     62  60  93 SW6       30.13S FOG
BROOKINGS      CLEAR     60  59  96 CALM      30.15R FOG
SISSETON         N/A     68  62  81 W8        30.08S
$$

SDZ017-020-022-023-036>040-048>070-310600-
SOUTHEAST SOUTH DAKOTA

CITY           SKY/WX    TMP DP  RH WIND       PRES   REMARKS
SIOUX FALLS    CLOUDY    63  60  90 NE6       30.14R FOG
HURON          CLEAR     62  61  96 SW5       30.15R FOG
CHAMBERLAIN    CLOUDY    60  60 100 NE3       30.15F FOG
MITCHELL       FOG       60  59  96 CALM      30.14F VSB 1/4
YANKTON        CLOUDY    64  60  87 E3        30.12R FOG
$$

ABBREVIATIONS USED IN REMARKS
   TC - TEMPERATURE IN CELSIUS
  WCI - WIND CHILL INDEX
   HX - HEAT INDEX
  VSB - VISIBILITY




USA.gov is the U.S. government's official web portal to all federal, state and local government web resources and services.